Flag for Spain Weather past 2 weeks in Granada, Spain

Now
59 °F

Clear.


Feels Like: 59 °F
Forecast: 58 / 93 °F
Wind: No wind

Location: Granada / Aeropuerto

Current Time: Aug 30, 2014 at 6:22:36 AM

Latest Report: Aug 30, 2014 at 6:00 AM


Visibility: 10 mi

Pressure: 30.04 "Hg

Humidity: 55%

Dew point: 43 °F

Location of GranadaLocation

Historic Weather in Granada — Graph

°F

Granada temperature yesterday

Maximum temperature yesterday: 99 °F (at 4:30 PM)
Minimum temperature yesterday: 61 °F (at 8:00 AM)
Average temperature yesterday: 81 °F

Past Weeks' High & Low Weather Summary

 TemperatureHumidityPressure
High102 °F (Aug 28, 4:00 PM)88% (Aug 16, 6:00 AM)30.15 "Hg (Aug 16, 6:00 AM)
Low54 °F (Aug 20, 7:30 AM)11% (Aug 29, 7:00 PM)29.89 "Hg (Aug 18, 5:00 PM)
Average82 °F40%30.04 "Hg
* Reported Aug 14 11:00 PM — Aug 29 11:00 PM, Granada, Weather by CustomWeather, © 2014

Note: Actual official high and low records may vary slightly from our data, if they occured in-between our weather recording intervals... More about our weather records

Advertising

Granada weather history for previous 24 hours

 ConditionsComfort  
Time TempWeatherWind HumidityBarometerVisibility
11:00 PM
Aug 29
72 °FClear.No wind33%30.04 "Hg10 mi
9:00 PM82 °FSunny.1 mph25%29.98 "Hg10 mi
8:30 PM86 °FPassing clouds.5 mph19%29.98 "HgN/A
8:00 PM90 °FSunny.6 mph16%29.98 "Hg10 mi
7:30 PM95 °FPassing clouds.10 mph11%29.98 "HgN/A
7:00 PM95 °FPassing clouds.10 mph11%29.98 "HgN/A
6:30 PM95 °FPassing clouds.9 mph14%30.01 "HgN/A
6:00 PM99 °FPassing clouds.9 mph13%30.01 "HgN/A
5:30 PM99 °FPassing clouds.12 mph12%30.01 "HgN/A
5:00 PM99 °FPassing clouds.7 mph13%30.01 "HgN/A
4:30 PM99 °FPassing clouds.10 mph13%30.01 "HgN/A
4:00 PM95 °FPassing clouds.7 mph12%30.01 "HgN/A
3:30 PM95 °FPassing clouds.6 mph15%30.04 "HgN/A
3:00 PM93 °FPassing clouds.1 mph19%30.04 "HgN/A
2:30 PM91 °FPassing clouds.2 mph26%30.04 "HgN/A
2:00 PM88 °FPassing clouds.2 mph29%30.07 "HgN/A
1:30 PM86 °FPassing clouds.2 mph31%30.07 "HgN/A
1:00 PM86 °FPassing clouds.1 mph31%30.07 "HgN/A
12:30 PM81 °FPassing clouds.No wind37%30.09 "HgN/A
12:00 PM77 °FPassing clouds.1 mph42%30.09 "HgN/A
11:30 AM77 °FPassing clouds.No wind42%30.09 "HgN/A
11:00 AM72 °FPassing clouds.No wind50%30.09 "HgN/A
10:30 AM68 °FPassing clouds.2 mph53%30.09 "HgN/A
10:00 AM68 °FPassing clouds.2 mph53%30.09 "HgN/A
9:30 AM68 °FPassing clouds.2 mph53%30.09 "HgN/A
9:00 AM64 °FSunny.1 mph60%30.07 "Hg10 mi
8:30 AM63 °FClear.No wind64%30.07 "Hg10 mi
8:00 AM61 °FClear.No wind63%30.09 "Hg10 mi
7:30 AM63 °FClear.No wind59%30.09 "Hg10 mi
7:00 AM63 °FClear.No wind68%30.07 "Hg10 mi
6:30 AM64 °FClear.1 mph56%30.07 "Hg10 mi
6:00 AM63 °FClear.1 mph59%30.07 "Hg10 mi
Weather by CustomWeather, © 2014

See weather overviewHow to use our weather pages